EST,Max TemperatureF,Mean TemperatureF,Min TemperatureF,Max Dew PointF,MeanDew PointF,Min DewpointF,Max Humidity, Mean Humidity, Min Humidity, Max Sea Level PressureIn, Mean Sea Level PressureIn, Min Sea Level PressureIn, Max VisibilityMiles, Mean VisibilityMiles, Min VisibilityMiles, Max Wind SpeedMPH, Mean Wind SpeedMPH, Max Gust SpeedMPH,PrecipitationIn, CloudCover, Events, WindDirDegrees
2013-2-1,32,28,24,32,18,9,100,63,44,30.37,30.08,29.82,10,9,1,23,8,33,0.00,3,,292
2013-2-2,32,26,21,30,17,10,93,64,44,30.38,30.25,30.02,10,10,2,13,7,18,0.00,1,,235
2013-2-3,35,30,24,32,28,23,100,88,60,30.01,29.90,29.84,10,9,1,8,2,,0.00,4,,316
2013-2-4,37,32,28,32,23,16,87,67,55,30.12,30.02,29.92,10,10,10,23,10,31,0.00,1,,256
2013-2-5,44,38,32,34,32,30,100,76,57,29.93,29.89,29.85,10,10,7,8,3,,0.00,1,,212
2013-2-6,44,36,28,36,30,27,100,80,57,30.36,30.16,29.92,10,8,2,15,3,18,0.00,1,,342
2013-2-7,41,34,26,32,29,25,100,78,61,30.46,30.36,30.20,10,10,10,12,3,18,0.00,1,,71
2013-2-8,42,38,35,43,38,28,100,92,70,30.19,29.85,29.67,10,6,1,22,8,41,0.00,7,,338
2013-2-9,39,36,32,28,23,21,80,64,56,30.38,30.16,29.86,10,10,10,28,18,41,0.00,2,,321
2013-2-10,42,33,24,32,21,14,87,60,36,30.50,30.42,30.30,10,10,10,10,4,,0.00,0,,99
2013-2-11,55,46,37,55,46,32,100,93,72,30.30,29.96,29.73,10,8,1,15,8,24,0.00,6,,172
2013-2-12,55,48,41,48,34,30,93,64,41,30.00,29.92,29.78,10,10,10,16,5,25,0.00,0,,305
2013-2-13,48,42,35,41,34,30,100,80,61,29.95,29.78,29.63,10,8,2,12,6,18,0.00,3,,53
2013-2-14,46,40,33,34,32,28,93,80,53,30.05,29.96,29.74,10,8,2,12,5,17,0.00,2,,303
2013-2-15,55,44,32,37,34,32,100,74,44,30.05,29.99,29.91,10,8,1,16,5,26,0.00,1,,169
2013-2-16,39,36,33,34,31,21,93,85,60,30.01,29.90,29.77,10,9,2,16,9,23,0.00,6,,351
2013-2-17,33,30,28,21,14,9,64,49,38,30.17,29.93,29.78,10,10,10,22,14,32,0.00,3,,307
2013-2-18,39,32,24,28,13,9,87,50,31,30.38,30.29,30.18,10,10,10,22,12,36,0.00,0,,267
2013-2-19,46,40,33,45,36,28,93,81,66,30.22,29.96,29.75,10,10,5,13,8,20,0.00,3,,190
2013-2-20,39,34,30,30,19,12,81,54,47,30.14,29.99,29.84,10,10,10,22,10,32,0.00,0,,312
2013-2-21,35,32,28,21,16,12,60,53,44,30.31,30.18,30.12,10,10,10,21,14,31,0.00,1,,315
2013-2-22,35,32,30,34,25,18,100,72,60,30.39,30.31,30.22,10,9,4,13,5,,0.00,4,,38
2013-2-23,46,40,35,45,40,34,100,96,93,30.21,29.94,29.79,10,4,0,8,3,,0.00,8,,356
2013-2-24,50,42,33,41,33,23,100,73,43,30.08,29.89,29.78,10,7,1,20,8,30,0.00,3,,325
2013-2-25,42,36,30,30,26,23,93,67,49,30.23,30.17,30.09,10,10,10,15,7,21,0.00,0,,323
2013-2-26,53,42,30,52,36,28,94,86,71,30.23,30.01,29.57,10,8,4,22,6,34,0.00,3,,83
2013-2-27,53,48,42,52,44,37,94,79,54,29.69,29.60,29.49,10,8,0,13,7,23,0.00,7,,239
2013-2-28,50,44,37,39,33,27,93,74,43,29.72,29.67,29.62,10,10,3,12,3,18,0.00,4,,302